User: anonymous   Login
Location: Bégole
(43.1574°N, 0.3291°E)
Time: 21:03:32
(UTC+00:00)
Language:

NOAA 16 DEB - Orbit

View from above orbital plane
View from above orbital plane
View from above satellite
View from above satellite

Ground track
Ground track

The orbit data is extracted from the following two-line orbital elements,

1 41531U 00055NF  24057.32585425  .00003551  00000-0  19754-2 0  9998
2 41531  98.7042  93.3959 0034393 109.7141 250.7746 14.11345895404098
Epoch (UTC): 26 February 2024 07:49:13
Eccentricity: 0.0034393
inclination: 98.7042°
perigee height: 830 km
apogee height: 879 km
right ascension of ascending node: 93.3959°
argument of perigee: 109.7141°
revolutions per day: 14.11345895
mean anomaly at epoch: 250.7746°
orbit number at epoch: 40409

The dashed part of the orbit path shows where the satellite is in the earth's shadow,  

DLR